sat.trackr.live / text

‹ back to catalog

STARLINK-36036

NORAD 66608 · 2025-270W

PAYLOAD ACTIVE UNKNOWN

§ Identity

Operator
Country
US
Launch date
2025-11-22
Launch site
AFETR
Launch vehicle
Mass (kg)
RCS (m²)

Purposes: comms

External: N2YO · Heavens-Above · Gunter

§ Orbital elements

Epoch: 2026-09-20T09:05:02.508864Z

Period
94.27 min
Inclination
43.0000°
Eccentricity
0.0001303
Mean motion
15.27599326 rev/d
Perigee alt
482.1 km
Apogee alt
483.9 km
Semi-major
6,861.1 km
B*
4.9186e-4
RAAN
36.4428°
Arg perigee
273.9719°
Mean anomaly
86.0983°
Rev number
4,732

§ Raw data

STARLINK-360361 66608U 25270W   26263.37850126  .00013305  00000+0  49186-3 0  99952 66608  43.0000  36.4428 0001303 273.9719  86.0983 15.27599326 47326

JSON: /api/v1/satellites/66608 · /tle

For live sub-satellite position, see the globe view (requires WebGL).

§ Visibility from observer

Set your observer location to see the next 7 days of passes ≥ 10°. The values pass through the URL so the page stays shareable.

No JS? Fill the form by hand. The geolocation button needs JavaScript.